Regional Weather Roundup
Issued by NWS

Home | Current Version | Previous Version | Text Only | Print | Product List | Glossary Off
Versions: 1 2 3 4 5 6 7 8 9 10 11 12 13 14 15 16 17 18 19 20 21 22 23 24 25 26 27 28 29 30 31 32 33 34 35 36 37 38 39 40 41 42 43 44 45 46 47 48 49 50

874
ASUS45 KSLC 210010
RWRUT

UTAH REGIONAL WEATHER ROUNDUP
NATIONAL WEATHER SERVICE SALT LAKE CITY UT
500 PM MST MON FEB 20 2017

UTZ001>011-023>025-210100-

NORTHERN UTAH

CITY           SKY/WX    TMP DP  RH WIND       PRES   REMARKS
BRIGHAM CITY     N/A     49  39  67 SW6       29.97S
HILL AFB       CLOUDY    52  34  51 S16G26    29.95F
LOGAN          LGT RAIN  51  37  58 S7        29.97S
OGDEN          CLOUDY    52  36  54 S15       29.95F
SALT LAKE CITY PTSUNNY   55  35  47 S26G37    29.94F
TOOELE VALLEY  MOSUNNY   55  37  50 S30G39    29.94F
WENDOVER       PTSUNNY   57  37  47 SW15      29.92R
HEBER CITY     CLOUDY    48  28  46 S7        30.02S
WEST JORDAN    PTSUNNY   55  43  63 SE22G28   29.97F

$$

UTZ011>015-024>027-210100-

CENTRAL/NORTHEAST UTAH

CITY           SKY/WX    TMP DP  RH WIND       PRES   REMARKS
PROVO AIRPORT  CLOUDY    53  35  50 SE10      30.02F
MOAB/CANYONLAN MOSUNNY   55  37  50 SW15      30.12F
DELTA          MOSUNNY   54  36  50 SW32G43   30.04R
PRICE          CLOUDY    41  37  86 E6        30.15S
RICHFIELD      SUNNY     55  34  44 SW21      30.07
ROOSEVELT      CLOUDY    46  34  61 CALM      30.14R
VERNAL         CLOUDY    43  35  73 SE5       30.12S

$$

UTZ013>016-019>022-027-210100-

SOUTHERN UTAH

CITY           SKY/WX    TMP DP  RH WIND       PRES   REMARKS
BRYCE CANYON   CLOUDY    35  33  92 SE12      30.23R WCI  27
CEDAR CITY     SUNNY     48  37  65 SW22G28   30.14R
MILFORD        CLOUDY    49  39  68 SW31G38   30.11R
ST GEORGE      CLOUDY    55  45  68 N5        30.19R
HANKSVILLE     MOSUNNY   55  34  44 S13G18    30.14F
KANAB          PTSUNNY   50  41  71 SW6       30.26
BLANDING       SUNNY     48  31  51 S5        30.29S

$$

REGIONAL REPORTS     COLORADO/ARIZONA

CITY           SKY/WX    TMP DP  RH WIND       PRES   REMARKS
CRAIG, CO      CLOUDY    46  29  51 S3        30.12F
GRAND JUNCTION CLOUDY    50  39  66 NW10      30.14F
RIFLE, CO      CLOUDY    50  33  52 W8        30.14S
MONTROSE, CO   CLOUDY    54  29  38 NW6       30.17S
CORTEZ, CO     SUNNY     50  33  52 W6        30.23S
COLORADO CITY  CLOUDY    52  41  66 W3        30.25R
PAGE, AZ       CLOUDY    54  34  46 CALM      30.18F
GRAND CANYON   CLOUDY    46  39  76 SW10      30.28R
KINGMAN, AZ    MOSUNNY   57  35  43 SW15      30.24R
FLAGSTAFF, AZ  SUNNY     47  35  63 VRB5      30.30R

$$

REGIONAL REPORTS    NEVADA/IDAHO/WYOMING

CITY           SKY/WX    TMP DP  RH WIND       PRES   REMARKS
LAS VEGAS, NV  MOSUNNY   64  45  49 SE12G21   30.10R
ELY, NY        PTSUNNY   46  37  71 S23G32    30.02R
ELKO, NV       LGT RAIN  42  37  82 SW5       29.97R
POCATELLO, ID  LGT RAIN  43  37  79 S20G32    29.92R
BURLEY, ID     CLOUDY    49  38  65 S22G29    29.86S
FORT BRIDGER,  MOCLDY    42  32  68 E5        30.03F
EVANSTON, WY   CLOUDY    39  28  64 SW9       30.00S WCI  33
ROCK SPRINGS,  CLOUDY    40  29  64 SE15      30.02F WCI  32
KEMMERER, WY     N/A     37  30  75 SW10      30.00S WCI  30

$$




USA.gov is the U.S. government's official web portal to all federal, state and local government web resources and services.